User: anonymous   Login
Location: Ocean City
(38.3360°N, 75.0850°W)
Time: 19:30:06
(UTC-05:00)
Language:

Gurwin Techsat 1B - Orbit

View from above orbital plane
View from above orbital plane
View from above satellite
View from above satellite

Ground track
Ground track

The orbit data is extracted from the following two-line orbital elements,

1 25397U 98043D   19316.43600965 -.00000019  00000-0  10781-4 0  9995
2 25397  98.7027 254.8816 0001300  22.5940 337.5296 14.23674035108752
Epoch (UTC): 12 November 2019 10:27:51
Eccentricity: 0.0001300
inclination: 98.7027°
perigee height: 812 km
apogee height: 814 km
right ascension of ascending node: 254.8816°
argument of perigee: 22.5940°
revolutions per day: 14.23674035
mean anomaly at epoch: 337.5296°
orbit number at epoch: 10875

The dashed part of the orbit path shows where the satellite is in the earth's shadow,  

DLR